GFSNE_250_spd_024.txt.gz
Wind_Speed
107 107 105 105 105 108 109 108 104 96 96 96 95 89 82 77 72 69 66 61 60 60 62 66 70 74 78 83 88 93 98 100 111 120 119 118 114 116
104 103 101 101 104 107 108 106 101 94 85 86 86 82 80 75 70 65 61 58 57 57 58 59 62 68 73 78 84 89 94 99 104 114 122 123 123 116
103 101 102 103 104 104 101 98 94 91 85 82 82 77 74 70 65 61 58 56 55 55 55 57 58 62 67 72 79 85 90 96 102 108 118 127 127 126
102 102 104 104 103 101 99 96 92 87 82 77 77 72 68 62 60 58 56 54 53 53 54 56 58 61 62 66 72 79 86 91 97 106 114 123 131 131
103 104 104 105 104 100 96 92 87 83 75 69 69 66 62 58 57 54 52 52 52 50 51 53 56 58 60 62 67 74 81 87 92 99 110 119 127 133
101 100 100 100 98 94 90 86 80 76 71 66 63 60 58 56 54 52 50 49 47 47 50 50 51 54 59 60 62 68 76 81 86 92 101 113 124 131
101 99 98 96 92 88 85 79 74 70 67 63 60 58 55 53 52 48 47 49 43 46 46 44 48 50 52 56 60 65 70 76 84 89 94 104 117 128
100 97 95 92 87 82 78 74 69 65 64 60 56 55 52 50 48 46 45 43 43 40 43 37 43 44 48 52 57 61 65 71 78 85 90 96 108 121
97 94 91 86 83 79 75 70 66 61 60 60 56 51 50 47 45 43 42 40 39 39 38 35 41 42 46 47 52 57 61 67 74 80 87 93 101 112
93 89 85 81 77 74 70 66 62 58 55 52 51 51 47 45 43 42 42 37 34 38 35 31 39 40 42 44 48 53 57 62 68 74 81 89 94 102
87 82 79 75 73 70 65 62 58 54 51 49 48 47 44 42 41 40 39 38 33 34 33 32 36 36 37 40 45 50 55 57 63 69 77 83 90 95
79 77 74 71 67 64 61 58 55 51 48 46 45 44 41 38 39 39 37 36 35 33 32 31 32 31 33 36 42 46 50 52 57 65 74 80 84 90
73 70 68 65 63 61 58 54 52 48 45 43 41 39 37 37 36 35 35 35 34 33 30 30 29 27 28 31 36 43 48 51 56 61 69 75 78 87
70 67 65 63 60 57 53 50 48 46 44 41 39 36 34 34 33 32 32 33 32 29 29 28 26 25 24 25 31 40 45 49 55 59 64 70 76 83
68 63 61 58 56 53 50 47 46 44 42 40 38 35 33 33 31 31 31 31 30 28 27 25 23 23 22 24 31 37 42 47 51 56 61 65 74 80
66 60 56 55 52 49 46 44 43 41 39 38 36 34 33 32 30 30 31 29 29 26 26 23 21 21 22 24 28 31 36 42 47 54 58 62 70 77
61 56 52 51 49 47 45 43 41 39 37 36 33 32 31 31 30 29 29 27 26 25 25 22 20 21 22 23 25 28 32 37 45 51 56 60 67 74
57 54 52 49 47 45 43 40 39 37 36 34 31 31 30 29 29 27 27 26 24 24 22 21 19 21 21 22 23 27 30 35 41 47 51 54 60 68
55 54 52 49 46 44 42 39 38 36 35 33 30 29 29 28 26 25 25 25 23 21 21 20 19 20 21 22 22 25 31 34 37 43 49 53 59 65
55 53 52 50 47 44 42 39 37 36 34 32 30 28 27 27 25 23 23 24 23 21 20 19 19 20 21 21 21 24 28 34 37 41 47 52 58 64
53 53 52 49 47 43 40 38 36 35 33 31 30 28 26 26 24 22 21 23 22 20 19 18 19 20 21 21 22 23 26 31 37 40 43 50 56 64
52 50 49 47 45 41 39 37 35 33 32 30 28 27 25 24 23 21 20 21 21 19 19 19 19 21 22 22 22 23 25 29 34 38 41 44 51 60
50 48 48 45 43 41 38 35 33 31 30 29 28 27 25 23 21 21 20 19 20 19 19 19 20 20 22 22 23 24 26 28 32 35 40 44 47 52

GFSNE_250_spd_030.txt.gz
Wind_Speed
97 98 102 107 109 109 108 110 112 111 111 110 107 104 99 95 90 86 81 77 72 65 60 59 60 59 62 67 68 71 78 82 82 86 94 96 113 114
98 104 106 106 109 111 112 113 113 110 106 105 102 97 92 88 84 80 75 71 67 62 57 56 55 55 57 61 65 67 73 79 79 79 88 94 103 118
104 106 106 109 112 113 112 111 109 106 101 97 93 89 83 77 73 71 67 65 61 57 54 54 53 52 52 55 61 65 67 75 79 77 81 89 94 112
105 106 109 112 113 111 111 108 104 97 91 84 82 79 77 72 68 67 65 60 56 53 53 52 50 49 50 51 55 60 64 70 77 78 77 84 92 98
107 109 112 114 112 111 107 103 98 92 86 81 79 76 72 67 64 61 59 56 51 50 51 49 47 47 49 50 53 57 60 64 71 78 79 80 88 98
111 113 116 114 111 106 103 98 92 86 83 79 75 71 67 64 60 58 56 50 47 47 49 44 46 47 47 49 51 54 56 61 69 75 78 80 85 95
114 116 115 112 107 105 101 95 88 83 79 75 71 68 64 61 56 53 53 50 45 46 45 39 47 44 46 45 47 49 53 58 63 70 76 78 82 92
117 116 113 109 108 104 97 90 84 78 75 71 68 65 62 58 54 49 48 48 46 45 41 37 45 43 44 44 44 47 51 56 59 64 72 76 79 86
116 114 112 110 106 99 92 86 81 73 70 67 65 62 60 56 52 47 44 43 42 44 42 36 41 39 43 43 43 46 49 53 56 61 67 74 77 81
116 115 114 108 102 95 88 81 76 70 67 62 60 59 57 54 50 46 44 40 38 41 43 32 37 37 41 43 42 44 46 47 51 57 62 69 75 78
117 115 111 102 96 89 82 77 71 66 62 59 57 55 54 51 49 44 40 40 36 36 41 33 35 36 36 42 41 41 42 44 48 52 58 64 71 76
116 112 103 97 91 83 76 74 67 63 58 56 55 53 52 50 47 44 40 36 36 32 38 34 35 36 31 36 39 38 39 42 45 48 52 57 63 70
112 104 98 91 84 77 72 70 64 60 56 55 53 52 49 46 44 44 40 38 34 33 34 33 32 31 31 30 37 34 37 40 41 43 47 52 59 67
105 98 94 86 78 73 69 65 61 57 55 52 51 50 48 45 42 40 39 37 36 31 32 33 27 27 27 30 30 33 34 37 40 42 46 51 56 63
97 92 90 82 74 70 66 61 59 56 54 52 50 49 47 44 41 37 37 34 33 32 30 28 28 26 26 26 27 30 33 37 40 42 45 49 54 59
91 88 85 78 72 67 63 59 57 54 53 51 48 47 45 42 40 37 35 34 32 31 27 27 24 23 26 25 25 28 31 35 38 40 44 47 52 57
84 85 82 73 67 64 59 57 54 53 52 48 45 44 43 41 38 37 34 33 31 30 28 23 22 22 23 23 24 26 29 32 34 36 38 44 50 55
80 78 78 70 64 60 57 55 53 51 50 47 43 42 41 39 36 35 33 31 30 29 26 23 20 21 22 21 22 25 26 28 30 31 34 39 46 52
78 70 68 64 63 60 57 54 52 49 48 44 42 39 39 38 35 33 32 30 28 26 24 22 20 20 20 20 21 23 24 26 28 30 33 37 41 49
74 68 64 61 60 57 54 52 49 46 45 42 39 38 37 36 34 32 30 28 26 25 22 20 18 19 19 19 20 22 24 25 27 30 33 35 39 45
70 68 63 59 57 54 51 49 47 45 43 40 38 36 34 34 33 30 28 27 25 23 20 19 17 18 19 19 19 21 23 25 26 29 32 34 36 41
68 66 63 57 54 52 50 47 44 42 40 38 36 33 32 32 31 29 27 26 24 22 19 18 17 17 18 19 19 21 23 25 26 27 30 32 33 38
66 64 59 55 51 49 47 45 42 40 38 36 34 31 31 31 29 28 25 25 24 22 19 17 16 17 18 19 20 21 23 25 26 28 29 32 33 35

GFSNE_250_spd_033.txt.gz
Wind_Speed
93 96 98 100 99 102 107 111 109 109 114 113 113 109 105 100 94 88 82 76 73 69 65 62 62 63 66 70 71 72 74 74 76 78 84 92 91 83
96 98 99 99 103 108 110 110 112 114 113 113 108 103 95 88 82 78 75 72 70 67 63 60 58 57 60 63 65 66 68 68 69 71 77 83 86 83
97 99 101 105 109 111 111 113 115 115 113 108 102 95 87 81 75 72 68 65 63 62 59 57 54 54 55 58 60 61 64 65 65 68 72 77 80 80
100 101 105 109 113 112 114 116 116 114 107 101 94 88 83 78 73 69 65 61 58 56 56 54 50 50 51 54 56 58 60 60 62 65 69 73 77 80
103 106 111 114 116 116 118 117 115 109 103 94 89 84 79 75 70 65 62 58 53 51 52 48 48 46 47 49 52 54 57 57 57 61 66 70 73 76
107 111 115 118 119 119 118 119 112 106 98 91 86 79 73 70 66 62 60 53 50 47 48 43 46 42 43 45 49 51 53 54 57 58 63 68 71 73
110 114 119 120 120 119 118 116 109 101 93 89 82 75 71 68 63 57 53 51 47 47 44 39 44 41 42 41 43 47 51 53 54 55 60 64 69 71
114 118 121 121 121 118 114 111 104 97 90 85 78 72 70 65 60 55 50 47 48 46 43 37 41 40 40 40 41 44 48 51 52 54 58 63 66 70
118 121 122 122 120 115 112 108 99 92 85 81 75 70 67 62 58 54 49 45 44 46 41 32 41 37 37 39 39 41 45 48 49 52 54 59 64 68
121 122 123 121 117 113 109 103 94 85 81 77 71 68 63 59 57 53 50 45 41 43 41 33 36 35 36 38 37 39 41 45 48 51 54 57 61 66
120 123 121 118 113 109 103 97 89 81 79 74 67 63 59 56 55 53 49 44 40 38 41 35 35 33 33 36 39 35 38 43 47 51 54 56 60 64
121 122 120 116 111 105 98 92 85 78 74 70 62 59 57 54 52 51 50 45 39 37 38 34 35 32 30 34 39 38 38 43 45 48 51 53 56 61
120 119 117 111 105 99 92 87 79 75 71 66 58 56 54 52 51 49 48 45 41 35 38 32 33 33 32 29 35 39 37 37 38 40 44 47 51 57
116 114 111 106 99 91 86 81 73 71 66 62 56 55 52 50 49 47 44 42 40 36 34 34 29 30 31 33 32 32 36 33 34 36 38 41 46 53
113 110 106 100 94 86 80 75 67 65 61 59 54 53 50 49 47 45 41 39 37 36 31 32 29 29 29 30 30 31 30 32 33 35 37 40 44 49
109 101 97 92 87 82 75 69 63 60 59 57 53 52 49 47 45 43 40 36 34 35 32 26 28 26 28 28 27 28 31 31 32 34 36 38 42 47
101 96 89 84 81 77 70 65 63 58 56 53 52 49 47 44 43 41 38 35 32 30 31 27 23 25 25 26 25 27 28 30 31 33 33 37 41 45
92 88 84 79 73 68 65 64 62 57 54 52 50 47 44 42 41 39 36 34 31 29 28 24 23 22 25 23 24 25 26 27 30 31 32 35 38 43
86 82 77 74 70 64 62 61 60 56 52 49 48 45 42 40 38 37 34 32 29 26 25 24 23 21 23 22 22 23 24 25 27 29 31 32 35 38
79 75 72 69 67 63 59 57 56 53 50 47 45 42 40 37 36 35 32 30 27 24 23 22 22 20 22 21 20 22 23 24 26 29 30 30 32 35
74 72 69 66 63 60 56 53 51 50 47 44 41 39 37 35 34 33 30 27 26 22 22 21 21 19 21 21 18 21 23 24 26 29 30 30 31 33
68 66 65 63 59 55 52 49 47 45 43 41 38 36 34 33 32 31 29 26 24 21 20 20 19 19 20 21 19 20 23 24 26 28 29 29 31 33
67 64 62 59 55 50 47 44 44 41 39 38 36 34 32 31 31 29 26 24 22 20 19 18 19 19 19 21 20 19 22 24 26 27 28 29 30 33

GFSNE_250_spd_036.txt.gz
Wind_Speed
86 91 95 96 96 97 98 102 102 104 111 115 113 109 108 105 101 99 94 88 84 80 75 71 68 67 67 68 69 68 67 68 70 72 78 80 84 89
90 94 97 99 99 100 103 106 107 110 112 116 115 113 110 103 97 90 84 80 77 73 69 65 62 60 60 62 63 64 65 65 65 67 71 75 80 85
95 96 100 100 103 105 108 108 112 114 116 117 116 112 104 103 94 84 78 74 70 67 66 62 58 57 56 57 58 59 61 62 61 62 63 69 75 81
98 100 100 100 105 108 109 112 116 119 119 117 116 110 104 96 88 79 74 69 65 63 62 58 55 54 52 53 54 54 56 58 58 59 59 63 68 74
103 102 104 106 110 113 113 118 121 122 119 116 113 108 101 92 84 76 72 67 62 60 58 54 51 50 48 49 50 50 52 54 55 56 57 60 64 69
105 107 108 111 114 115 119 123 123 123 119 115 110 105 97 88 80 74 70 64 58 57 53 50 52 46 45 47 46 46 48 50 51 53 55 56 59 64
107 107 110 113 114 118 123 125 124 121 118 111 105 100 91 85 77 70 66 61 56 54 52 41 54 45 43 43 44 43 45 46 48 50 52 54 57 60
107 110 113 114 118 123 125 124 124 120 115 107 101 94 88 82 74 68 63 58 55 50 51 40 48 44 41 39 40 41 42 44 45 47 49 52 54 58
110 113 115 118 122 125 124 123 120 116 113 101 98 89 84 78 71 66 61 57 52 49 50 42 42 40 39 38 38 38 38 41 42 45 47 50 53 56
113 116 119 123 125 124 124 119 117 112 104 97 91 83 80 73 66 62 57 56 51 47 47 46 38 36 37 39 36 36 36 39 42 43 46 48 51 55
116 120 123 124 124 122 119 116 114 108 94 89 85 79 76 69 62 58 55 55 52 46 43 43 41 33 35 38 38 33 35 39 40 41 44 46 49 53
120 120 121 122 122 118 116 113 109 100 88 81 81 74 69 63 60 56 54 54 50 46 41 40 38 37 29 36 36 35 34 36 37 38 41 44 46 50
115 117 119 118 117 115 111 107 98 92 84 80 73 69 64 61 58 56 53 51 49 46 40 37 36 35 34 28 34 36 33 33 36 38 40 42 44 48
112 112 112 113 111 109 104 96 89 85 79 75 69 64 60 56 55 52 50 49 47 45 39 34 37 34 34 31 30 33 33 34 34 35 36 40 44 48
114 111 109 108 106 99 94 90 84 79 74 69 63 61 58 54 53 50 47 45 44 41 39 33 33 34 33 30 32 31 30 31 32 32 32 34 39 46
109 110 110 105 97 93 88 83 79 72 68 65 61 58 55 52 51 48 45 43 41 38 38 34 29 33 32 30 31 30 29 29 28 28 29 30 34 40
103 103 99 95 90 87 83 78 73 69 66 61 59 55 53 49 48 45 42 40 38 36 35 35 30 29 31 30 29 27 27 26 26 28 28 28 31 36
95 91 88 86 84 80 76 73 69 65 61 58 56 51 49 47 45 41 39 38 36 33 31 32 31 29 28 29 27 24 25 25 26 27 27 27 30 33
90 85 84 80 77 74 70 67 64 63 58 56 53 49 45 44 40 38 37 35 34 31 29 29 28 28 27 27 25 23 24 24 25 26 26 28 29 32
84 79 77 75 71 68 66 63 60 59 54 52 49 45 41 39 37 35 34 33 32 29 27 27 26 26 26 25 23 22 24 24 24 25 25 25 28 33
78 76 71 69 68 66 63 59 54 53 51 47 44 40 38 36 34 33 32 31 31 28 26 25 25 24 24 23 21 21 23 23 24 24 24 24 27 31
74 71 68 66 63 60 58 54 49 48 46 44 40 37 35 33 32 31 29 29 29 26 25 24 24 23 22 22 21 20 23 23 23 23 23 24 25 29
71 69 67 63 59 56 53 48 45 44 42 41 38 36 34 31 30 29 28 27 27 25 24 24 24 22 21 21 21 20 21 22 23 22 23 24 26 28

GFSNE_250_spd_042.txt.gz
Wind_Speed
86 90 93 98 99 103 103 104 105 107 109 113 117 119 121 120 117 113 110 107 107 103 98 97 98 96 93 85 80 75 71 69 68 67 64 61 58 58
90 93 97 101 102 102 104 107 110 112 112 115 117 119 119 120 119 115 111 108 108 104 97 96 97 96 90 81 76 72 67 63 62 62 60 57 53 55
92 96 99 102 105 104 106 109 111 115 116 114 116 118 117 117 116 115 113 109 107 104 101 96 91 85 82 77 73 69 63 59 55 57 56 52 50 51
97 99 100 100 102 106 108 110 113 113 117 115 116 117 117 117 117 115 113 110 107 104 100 90 84 78 77 73 67 60 57 55 51 52 52 49 48 49
97 99 100 101 101 104 108 111 112 115 119 118 117 117 118 119 115 113 111 109 106 102 92 82 78 74 73 70 64 55 49 50 47 49 49 48 47 46
96 96 99 98 103 105 108 110 115 118 120 121 119 117 118 119 118 112 109 107 102 94 82 78 72 68 67 64 60 55 46 45 48 46 45 46 46 45
94 95 98 100 104 106 109 113 117 120 121 123 121 121 122 121 117 113 107 101 94 86 76 74 68 65 62 58 54 54 49 44 43 46 43 43 45 44
91 94 99 101 104 107 111 116 118 121 122 123 123 125 124 123 119 111 104 93 84 82 70 69 64 62 57 56 52 53 48 44 43 42 43 41 42 43
91 94 98 103 107 110 114 116 118 120 121 122 122 121 122 121 117 108 95 86 78 75 65 62 61 59 55 54 50 50 46 42 42 42 40 39 40 41
95 98 101 104 109 113 115 116 118 120 122 123 124 121 118 111 104 96 90 82 74 71 64 57 60 58 54 51 49 48 45 40 40 40 39 37 38 39
94 96 101 107 111 114 115 117 118 118 120 122 122 119 110 100 93 88 83 76 70 67 65 56 58 55 54 49 47 44 46 37 39 38 37 36 37 39
97 102 107 109 111 115 116 119 117 117 115 113 111 107 100 94 88 83 79 72 64 61 61 53 55 50 53 47 45 41 44 38 36 35 36 36 36 39
100 105 109 110 112 114 117 119 117 114 109 106 102 96 92 88 83 78 74 69 62 60 57 53 53 48 47 49 40 39 41 38 35 34 34 35 36 37
106 109 113 113 112 113 115 115 111 108 104 98 94 91 87 82 77 72 70 67 62 58 55 50 50 46 44 43 42 38 38 36 34 33 33 34 35 35
109 113 114 113 112 114 115 111 107 103 99 94 90 86 82 78 73 69 65 61 59 58 52 48 45 43 41 40 38 35 35 35 33 32 32 32 32 35
117 116 116 115 117 115 111 106 102 98 92 88 85 81 77 74 69 65 59 53 54 52 49 47 44 41 38 38 36 32 33 32 32 31 30 30 31 33
116 117 116 116 114 111 105 99 97 92 88 84 79 77 73 70 64 60 55 52 50 47 45 42 40 38 35 35 33 31 32 31 30 28 28 28 29 31
119 117 118 114 110 103 96 93 92 88 83 80 76 73 69 64 59 57 51 49 47 44 42 40 37 35 33 32 31 30 31 29 27 26 26 26 27 29
121 121 117 111 103 96 92 88 85 83 80 77 72 68 64 59 56 52 48 46 43 41 40 37 35 33 31 29 29 29 29 27 25 23 25 24 25 27
121 118 112 104 98 92 88 83 81 79 74 72 67 63 59 55 51 49 46 44 41 40 38 35 34 32 29 28 27 27 26 25 23 23 23 23 24 25
121 114 106 100 93 89 85 81 77 75 71 66 62 58 55 53 49 46 43 42 39 37 36 34 32 30 28 27 26 25 24 23 22 21 22 23 24 24
114 107 101 95 89 85 83 79 74 69 64 61 57 55 53 50 46 44 41 39 36 36 33 32 30 29 27 26 25 24 22 22 21 20 21 23 24 24
106 101 96 91 86 83 78 75 69 64 60 57 54 52 50 47 44 41 39 37 35 33 31 30 29 27 26 25 24 23 21 20 20 20 21 23 23 24

GFSNE_250_spd_045.txt.gz
Wind_Speed
80 84 87 91 93 96 100 101 105 105 106 109 109 113 114 114 115 115 115 112 110 109 109 109 108 103 99 97 94 86 80 77 72 70 69 68 65 62
85 91 92 94 96 100 101 105 107 107 103 106 107 111 116 120 121 119 116 112 112 114 114 113 107 101 99 93 86 80 75 69 67 64 63 62 59 58
91 94 95 94 96 100 103 104 105 106 104 104 107 111 115 117 119 118 116 117 118 118 117 114 108 100 96 88 79 75 71 66 65 62 60 58 55 55
87 90 92 94 97 97 100 101 103 105 106 105 107 109 111 116 117 120 119 119 120 120 118 114 107 96 88 81 77 72 68 61 58 55 55 54 53 51
85 89 91 90 93 96 98 98 102 105 107 106 104 108 111 116 118 120 122 123 120 118 115 106 96 86 81 77 73 71 65 59 54 48 52 49 48 48
80 83 86 90 92 95 97 98 101 101 103 106 110 111 114 116 120 124 125 121 115 111 102 92 86 80 77 70 68 65 62 57 50 45 48 50 47 46
81 85 87 90 92 93 93 93 95 99 106 111 114 118 117 118 123 125 125 119 109 101 88 85 81 74 71 66 64 60 56 54 49 44 44 47 47 44
80 83 87 90 90 89 88 92 101 103 108 116 118 119 116 119 121 121 121 114 103 95 85 78 75 71 68 65 60 56 54 51 47 42 43 43 45 44
78 80 81 82 86 87 92 96 100 109 118 121 118 118 119 120 119 115 112 105 97 91 82 75 71 67 66 62 56 52 50 49 46 41 42 42 42 43
77 81 82 87 89 90 94 98 103 113 117 119 119 119 120 118 116 110 105 99 91 86 79 70 69 65 63 59 53 51 47 47 45 40 41 41 40 39
85 85 87 90 93 93 97 102 108 114 117 115 116 118 115 112 110 105 99 94 88 82 75 66 67 65 62 59 52 50 46 45 43 39 39 38 38 37
90 89 90 90 95 101 106 110 112 114 112 110 113 112 109 107 104 99 93 87 82 77 75 67 65 61 60 56 49 46 44 42 40 37 36 36 36 36
91 88 93 97 100 106 112 117 117 113 110 111 108 103 102 100 96 92 87 82 78 73 69 64 62 56 53 53 48 42 42 40 37 35 35 33 34 34
93 93 97 100 106 113 115 117 116 113 111 106 103 100 98 94 88 83 81 79 74 69 65 59 57 53 50 48 45 40 38 38 35 33 33 32 32 32
98 100 101 106 111 113 116 115 116 114 111 107 101 98 94 89 83 79 76 74 69 64 59 55 52 49 46 44 41 38 35 35 34 31 31 31 30 31
105 104 106 110 112 115 116 119 116 115 110 103 99 95 90 85 81 76 72 67 65 59 57 53 49 45 42 40 38 34 34 32 32 30 30 28 30 31
110 113 113 114 115 117 121 119 118 115 108 103 96 91 86 82 77 72 66 62 59 55 53 48 45 42 38 36 34 32 31 30 28 28 27 27 29 30
118 116 116 116 117 118 118 117 114 107 102 97 93 87 83 77 72 66 62 58 54 51 50 45 42 39 36 35 32 31 29 27 26 26 26 27 27 27
119 119 118 117 119 121 117 112 107 102 97 92 88 84 78 71 67 63 58 55 51 49 45 42 39 37 34 33 31 28 28 26 25 25 26 26 25 26
122 121 120 121 120 117 112 108 102 97 92 88 83 77 72 67 62 58 55 52 48 46 42 40 37 34 31 31 29 26 26 25 24 24 25 24 24 25
125 125 124 122 117 112 106 101 96 91 88 84 78 73 67 63 59 56 52 50 45 44 40 38 35 32 29 29 27 26 25 24 23 24 24 22 23 24
125 124 122 116 110 105 100 95 92 87 84 78 73 69 64 59 56 53 49 46 41 41 38 35 33 31 28 27 25 25 24 23 22 23 23 21 22 23
122 119 112 108 103 100 95 90 88 82 77 72 68 64 60 55 53 50 45 42 38 38 36 33 31 29 27 26 24 24 23 21 21 22 22 21 21 22